Back to Top

Language: 

My Weather Underground Personal Weather Station Historical Data with Graphs...

Delerius Weather Station Historical Data
Daily Summary for February 27, 2017 Units:  English    Metric   Both
« Previous Day
Next Day »
Daily Weekly Monthly Yearly Custom
  High: Low: Average:
Temperature: 44.4 °F 33.4 °F 40.8 °F
Dew Point: 41.7 °F 31.7 °F 38.3 °F
Humidity: 94 % 84 % 91 %
Wind Speed: 12.0 mph 0.0 mph 5.7 mph
Wind Gust: 20.0 mph - -
Wind:- - SW
Pressure: 29.38 in 28.93 in -
Precipitation: 0.09 in    
Historical Graphs
 
 
Tabular Data for February 27, 2017
Time Temperature Dew Point Pressure Wind Wind Speed Wind Gust Humidity Rainfall Rate (Hourly) solar Conditions
00:00 43.0 °F 39.7 °F 29.38 in WSW 4.0 mph 4.0 mph 88 % 0.00 in 0 W/m2
00:05 42.8 °F 39.5 °F 29.37 in WSW 2.0 mph 4.0 mph 88 % 0.00 in 0 W/m2
00:15 42.5 °F 39.2 °F 29.37 in SW 1.0 mph 2.0 mph 88 % 0.00 in 0 W/m2
00:20 42.6 °F 39.6 °F 29.37 in SW 3.0 mph 3.0 mph 89 % 0.00 in 0 W/m2
00:25 42.7 °F 39.7 °F 29.37 in SW 5.0 mph 5.0 mph 89 % 0.00 in 0 W/m2
00:30 42.9 °F 40.2 °F 29.36 in SW 7.0 mph 7.0 mph 90 % 0.00 in 0 W/m2
00:35 43.3 °F 40.3 °F 29.36 in SW 8.0 mph 8.0 mph 89 % 0.00 in 0 W/m2
00:45 43.7 °F 40.1 °F 29.36 in SW 9.0 mph 11.0 mph 87 % 0.00 in 0 W/m2
00:50 43.9 °F 40.3 °F 29.36 in WSW 8.0 mph 14.0 mph 87 % 0.00 in 0 W/m2
00:55 44.0 °F 40.1 °F 29.35 in SSW 9.0 mph 14.0 mph 86 % 0.00 in 0 W/m2
01:00 44.0 °F 40.1 °F 29.36 in SSW 9.0 mph 10.0 mph 86 % 0.00 in 0 W/m2
01:05 44.1 °F 40.2 °F 29.36 in SW 8.0 mph 12.0 mph 86 % 0.00 in 0 W/m2
01:10 44.0 °F 40.1 °F 29.36 in SW 8.0 mph 8.0 mph 86 % 0.00 in 0 W/m2
01:20 44.0 °F 40.1 °F 29.36 in SW 7.0 mph 7.0 mph 86 % 0.00 in 0 W/m2
01:25 43.9 °F 40.0 °F 29.35 in SW 7.0 mph 12.0 mph 86 % 0.00 in 0 W/m2
01:30 44.0 °F 39.8 °F 29.35 in SW 7.0 mph 12.0 mph 85 % 0.00 in 0 W/m2
01:35 44.1 °F 39.9 °F 29.35 in SW 8.0 mph 12.0 mph 85 % 0.00 in 0 W/m2
01:45 44.1 °F 39.9 °F 29.35 in SSW 10.0 mph 12.0 mph 85 % 0.00 in 0 W/m2
01:55 44.1 °F 39.6 °F 29.34 in SSW 10.0 mph 12.0 mph 84 % 0.00 in 0 W/m2
02:00 44.1 °F 39.9 °F 29.34 in SSW 10.0 mph 10.0 mph 85 % 0.00 in 0 W/m2
02:05 44.1 °F 39.9 °F 29.34 in SW 10.0 mph 11.0 mph 85 % 0.00 in 0 W/m2
02:10 44.1 °F 39.9 °F 29.34 in SW 9.0 mph 9.0 mph 85 % 0.00 in 0 W/m2
02:15 44.0 °F 39.8 °F 29.33 in SSW 8.0 mph 12.0 mph 85 % 0.00 in 0 W/m2
02:25 43.9 °F 40.0 °F 29.33 in SW 6.0 mph 7.0 mph 86 % 0.00 in 0 W/m2
02:30 43.9 °F 40.0 °F 29.33 in South 7.0 mph 12.0 mph 86 % 0.00 in 0 W/m2
02:35 43.9 °F 40.0 °F 29.33 in South 6.0 mph 12.0 mph 86 % 0.00 in 0 W/m2
02:40 43.8 °F 39.9 °F 29.33 in SSW 6.0 mph 6.0 mph 86 % 0.00 in 0 W/m2
02:45 43.9 °F 40.0 °F 29.32 in South 7.0 mph 9.0 mph 86 % 0.00 in 0 W/m2
02:50 43.9 °F 40.3 °F 29.32 in SSW 7.0 mph 7.0 mph 87 % 0.00 in 0 W/m2
03:00 43.9 °F 40.3 °F 29.31 in South 7.0 mph 7.0 mph 87 % 0.00 in 0 W/m2
03:05 43.9 °F 40.3 °F 29.31 in SSE 7.0 mph 12.0 mph 87 % 0.00 in 0 W/m2
03:15 44.0 °F 40.4 °F 29.31 in SSW 8.0 mph 12.0 mph 87 % 0.00 in 0 W/m2
03:20 44.0 °F 40.7 °F 29.30 in South 7.0 mph 7.0 mph 88 % 0.00 in 0 W/m2
03:25 43.9 °F 40.6 °F 29.30 in SSW 7.0 mph 12.0 mph 88 % 0.00 in 0 W/m2
03:30 43.7 °F 40.7 °F 29.30 in South 5.0 mph 5.0 mph 89 % 0.00 in 0 W/m2
03:35 43.6 °F 40.6 °F 29.29 in South 4.0 mph 8.0 mph 89 % 0.00 in 0 W/m2
03:40 43.5 °F 40.8 °F 29.29 in South 6.0 mph 12.0 mph 90 % 0.00 in 0 W/m2
03:45 43.5 °F 40.8 °F 29.29 in South 7.0 mph 12.0 mph 90 % 0.00 in 0 W/m2
03:50 43.5 °F 40.8 °F 29.29 in South 8.0 mph 8.0 mph 90 % 0.00 in 0 W/m2
03:55 43.5 °F 40.8 °F 29.29 in South 8.0 mph 12.0 mph 90 % 0.00 in 0 W/m2
04:05 43.3 °F 40.8 °F 29.28 in SW 8.0 mph 12.0 mph 91 % 0.00 in 0 W/m2
04:10 43.2 °F 40.8 °F 29.28 in SSW 7.0 mph 7.0 mph 91 % 0.00 in 0 W/m2
04:15 43.1 °F 40.7 °F 29.28 in SW 6.0 mph 12.0 mph 91 % 0.00 in 0 W/m2
04:20 43.0 °F 40.8 °F 29.27 in SSW 5.0 mph 12.0 mph 92 % 0.00 in 0 W/m2
04:30 42.9 °F 40.7 °F 29.27 in South 7.0 mph 12.0 mph 92 % 0.00 in 0 W/m2
04:40 43.0 °F 40.8 °F 29.26 in SSW 7.0 mph 7.0 mph 92 % 0.00 in 0 W/m2
04:45 42.9 °F 40.7 °F 29.25 in SSE 6.0 mph 11.0 mph 92 % 0.00 in 0 W/m2
04:50 43.0 °F 40.8 °F 29.25 in SSE 7.0 mph 12.0 mph 92 % 0.00 in 0 W/m2
04:55 43.0 °F 41.1 °F 29.25 in SSW 8.0 mph 12.0 mph 93 % 0.00 in 0 W/m2
05:00 43.1 °F 41.2 °F 29.25 in South 8.0 mph 12.0 mph 93 % 0.00 in 0 W/m2
05:05 43.1 °F 41.2 °F 29.25 in SSW 9.0 mph 12.0 mph 93 % 0.00 in 0 W/m2
05:15 43.1 °F 40.9 °F 29.25 in SSW 9.0 mph 12.0 mph 92 % 0.00 in 0 W/m2
05:20 43.0 °F 40.8 °F 29.24 in SSW 8.0 mph 8.0 mph 92 % 0.07 in 0 W/m2
05:25 43.0 °F 40.8 °F 29.24 in SSW 8.0 mph 12.0 mph 92 % 0.07 in 0 W/m2
05:30 43.0 °F 40.8 °F 29.24 in SSW 9.0 mph 9.0 mph 92 % 0.05 in 0 W/m2
05:35 43.0 °F 41.1 °F 29.24 in South 9.0 mph 12.0 mph 93 % 0.04 in 0 W/m2
05:45 42.9 °F 40.7 °F 29.23 in South 9.0 mph 9.0 mph 92 % 0.00 in 0 W/m2
05:55 42.9 °F 40.5 °F 29.23 in SSW 9.0 mph 16.0 mph 91 % 0.00 in 0 W/m2
06:00 42.8 °F 40.4 °F 29.22 in SSW 8.0 mph 8.0 mph 91 % 0.00 in 0 W/m2
06:05 42.7 °F 40.3 °F 29.22 in SW 8.0 mph 11.0 mph 91 % 0.00 in 0 W/m2
06:10 42.6 °F 40.2 °F 29.22 in WSW 8.0 mph 8.0 mph 91 % 0.00 in 0 W/m2
06:20 42.5 °F 40.1 °F 29.21 in SSE 6.0 mph 12.0 mph 91 % 0.00 in 0 W/m2
06:25 42.4 °F 40.0 °F 29.21 in South 4.0 mph 12.0 mph 91 % 0.00 in 0 W/m2
06:30 42.3 °F 39.9 °F 29.21 in South 5.0 mph 5.0 mph 91 % 0.00 in 0 W/m2
06:35 42.2 °F 39.8 °F 29.21 in SSW 6.0 mph 7.0 mph 91 % 0.00 in 0 W/m2
06:40 42.0 °F 39.6 °F 29.20 in South 6.0 mph 12.0 mph 91 % 0.00 in 0 W/m2
06:45 41.9 °F 39.5 °F 29.20 in SSE 6.0 mph 12.0 mph 91 % 0.00 in 0 W/m2
06:55 41.7 °F 39.3 °F 29.20 in SSE 6.0 mph 12.0 mph 91 % 0.00 in 0 W/m2
07:00 41.6 °F 39.2 °F 29.19 in SSE 6.0 mph 12.0 mph 91 % 0.00 in 0 W/m2
07:05 41.6 °F 39.4 °F 29.19 in SSW 6.0 mph 12.0 mph 92 % 0.00 in 5 W/m2
07:15 41.6 °F 39.4 °F 29.18 in SSE 6.0 mph 12.0 mph 92 % 0.00 in 11 W/m2
07:20 41.7 °F 39.5 °F 29.18 in South 7.0 mph 7.0 mph 92 % 0.00 in 16 W/m2
07:30 41.9 °F 39.7 °F 29.18 in SSW 7.0 mph 12.0 mph 92 % 0.00 in 54 W/m2
07:35 42.1 °F 39.9 °F 29.18 in SSW 7.0 mph 12.0 mph 92 % 0.00 in 35 W/m2
07:40 42.2 °F 39.8 °F 29.18 in SW 8.0 mph 12.0 mph 91 % 0.00 in 32 W/m2
07:45 42.2 °F 39.8 °F 29.17 in SW 7.0 mph 12.0 mph 91 % 0.00 in 42 W/m2
07:50 42.3 °F 39.6 °F 29.17 in SSW 5.0 mph 12.0 mph 90 % 0.00 in 54 W/m2
08:00 42.4 °F 39.7 °F 29.17 in SW 4.0 mph 12.0 mph 90 % 0.00 in 88 W/m2
08:05 42.5 °F 39.8 °F 29.17 in SW 4.0 mph 12.0 mph 90 % 0.00 in 65 W/m2
08:10 42.6 °F 39.9 °F 29.16 in SW 4.0 mph 4.0 mph 90 % 0.00 in 84 W/m2
08:15 42.8 °F 40.1 °F 29.16 in West 4.0 mph 5.0 mph 90 % 0.00 in 148 W/m2
08:25 43.3 °F 40.6 °F 29.16 in SSW 4.0 mph 12.0 mph 90 % 0.00 in 151 W/m2
08:35 43.5 °F 40.5 °F 29.15 in SSW 6.0 mph 6.0 mph 89 % 0.00 in 69 W/m2
08:40 43.5 °F 40.5 °F 29.15 in SW 6.0 mph 12.0 mph 89 % 0.00 in 49 W/m2
08:45 43.4 °F 40.1 °F 29.15 in SSW 6.0 mph 12.0 mph 88 % 0.00 in 47 W/m2
08:50 43.3 °F 40.0 °F 29.15 in SW 5.0 mph 12.0 mph 88 % 0.00 in 42 W/m2
08:55 43.3 °F 40.3 °F 29.15 in SW 4.0 mph 12.0 mph 89 % 0.00 in 37 W/m2
09:00 43.3 °F 40.0 °F 29.15 in SSW 4.0 mph 12.0 mph 88 % 0.00 in 25 W/m2
09:10 43.2 °F 39.9 °F 29.14 in South 5.0 mph 12.0 mph 88 % 0.00 in 37 W/m2
09:15 43.1 °F 39.8 °F 29.14 in South 8.0 mph 12.0 mph 88 % 0.00 in 37 W/m2
09:20 43.0 °F 39.7 °F 29.14 in SW 8.0 mph 8.0 mph 88 % 0.00 in 32 W/m2
09:25 42.9 °F 39.6 °F 29.14 in SSW 8.0 mph 14.0 mph 88 % 0.00 in 35 W/m2
09:30 42.7 °F 39.7 °F 29.13 in South 8.0 mph 12.0 mph 89 % 0.00 in 39 W/m2
09:40 42.3 °F 39.3 °F 29.13 in SW 8.0 mph 12.0 mph 89 % 0.00 in 42 W/m2
09:45 42.2 °F 39.5 °F 29.13 in SW 8.0 mph 12.0 mph 90 % 0.00 in 58 W/m2
09:50 42.0 °F 39.3 °F 29.13 in SW 7.0 mph 12.0 mph 90 % 0.00 in 70 W/m2
09:55 41.9 °F 39.2 °F 29.13 in SSW 8.0 mph 12.0 mph 90 % 0.00 in 84 W/m2
10:00 41.9 °F 39.5 °F 29.13 in SSW 7.0 mph 7.0 mph 91 % 0.00 in 69 W/m2
10:05 41.8 °F 39.4 °F 29.12 in SW 7.0 mph 12.0 mph 91 % 0.00 in 98 W/m2
10:15 41.9 °F 39.7 °F 29.11 in SW 4.0 mph 12.0 mph 92 % 0.00 in 118 W/m2
10:20 41.9 °F 39.7 °F 29.11 in SSW 2.0 mph 12.0 mph 92 % 0.00 in 79 W/m2
10:25 41.9 °F 39.7 °F 29.10 in SSW 3.0 mph 12.0 mph 92 % 0.00 in 137 W/m2
10:35 41.9 °F 39.7 °F 29.09 in South 3.0 mph 12.0 mph 92 % 0.00 in 142 W/m2
10:40 41.9 °F 39.7 °F 29.09 in SSW 3.0 mph 12.0 mph 92 % 0.00 in 190 W/m2
10:50 42.0 °F 39.8 °F 29.08 in South 5.0 mph 12.0 mph 92 % 0.00 in 181 W/m2
10:55 42.2 °F 40.0 °F 29.09 in SSW 5.0 mph 12.0 mph 92 % 0.00 in 98 W/m2
11:00 42.3 °F 39.9 °F 29.08 in SSW 4.0 mph 4.0 mph 91 % 0.00 in 139 W/m2
11:05 42.2 °F 39.8 °F 29.08 in SSW 2.0 mph 12.0 mph 91 % 0.00 in 127 W/m2
11:10 42.3 °F 39.9 °F 29.08 in SSW 3.0 mph 3.0 mph 91 % 0.00 in 114 W/m2
11:20 42.5 °F 40.1 °F 29.07 in South 2.0 mph 12.0 mph 91 % 0.00 in 56 W/m2
11:25 42.5 °F 39.8 °F 29.07 in South 3.0 mph 12.0 mph 90 % 0.00 in 90 W/m2
11:30 42.5 °F 39.8 °F 29.07 in South 2.0 mph 12.0 mph 90 % 0.00 in 128 W/m2
11:35 42.6 °F 39.9 °F 29.06 in SSE 2.0 mph 12.0 mph 90 % 0.00 in 118 W/m2
11:40 42.6 °F 39.9 °F 29.06 in SSE 4.0 mph 4.0 mph 90 % 0.00 in 132 W/m2
11:50 42.8 °F 40.1 °F 29.05 in SW 3.0 mph 12.0 mph 90 % 0.00 in 139 W/m2
11:55 42.8 °F 39.8 °F 29.05 in SW 3.0 mph 12.0 mph 89 % 0.00 in 139 W/m2
12:05 43.1 °F 40.4 °F 29.04 in SSE 3.0 mph 12.0 mph 90 % 0.00 in 70 W/m2
12:10 43.0 °F 40.0 °F 29.03 in South 3.0 mph 12.0 mph 89 % 0.00 in 44 W/m2
12:15 42.8 °F 39.5 °F 29.03 in South 4.0 mph 12.0 mph 88 % 0.00 in 56 W/m2
12:20 42.8 °F 39.8 °F 29.03 in South 3.0 mph 12.0 mph 89 % 0.00 in 47 W/m2
12:30 42.6 °F 39.9 °F 29.02 in SSW 4.0 mph 12.0 mph 90 % 0.00 in 72 W/m2
12:35 42.6 °F 39.9 °F 29.01 in SSE 4.0 mph 12.0 mph 90 % 0.00 in 105 W/m2
12:40 42.6 °F 40.2 °F 29.01 in SSE 4.0 mph 12.0 mph 91 % 0.00 in 93 W/m2
12:45 42.5 °F 40.1 °F 29.01 in SSE 5.0 mph 12.0 mph 91 % 0.00 in 72 W/m2
12:50 42.3 °F 39.9 °F 29.01 in SSW 6.0 mph 12.0 mph 91 % 0.00 in 70 W/m2
13:00 42.1 °F 39.7 °F 29.00 in SSE 6.0 mph 6.0 mph 91 % 0.00 in 76 W/m2
13:05 42.1 °F 39.9 °F 29.00 in SSE 6.0 mph 12.0 mph 92 % 0.00 in 220 W/m2
13:15 42.3 °F 40.1 °F 28.99 in South 4.0 mph 12.0 mph 92 % 0.00 in 223 W/m2
13:20 42.3 °F 40.1 °F 28.98 in SSE 4.0 mph 12.0 mph 92 % 0.00 in 225 W/m2
13:25 42.4 °F 40.0 °F 28.98 in SSE 4.0 mph 12.0 mph 91 % 0.00 in 207 W/m2
13:35 42.6 °F 39.9 °F 28.98 in SSW 4.0 mph 12.0 mph 90 % 0.00 in 258 W/m2
13:40 42.8 °F 40.1 °F 28.97 in South 4.0 mph 12.0 mph 90 % 0.00 in 345 W/m2
13:45 43.1 °F 40.4 °F 28.97 in South 4.0 mph 12.0 mph 90 % 0.00 in 508 W/m2
13:50 43.7 °F 41.2 °F 28.96 in South 3.0 mph 12.0 mph 91 % 0.00 in 441 W/m2
13:55 44.2 °F 41.5 °F 28.96 in SE 3.0 mph 12.0 mph 90 % 0.00 in 218 W/m2
14:00 44.4 °F 41.7 °F 28.97 in South 2.0 mph 12.0 mph 90 % 0.00 in 214 W/m2
14:10 44.2 °F 41.2 °F 28.96 in SSW 3.0 mph 12.0 mph 89 % 0.00 in 158 W/m2
14:15 44.0 °F 40.7 °F 28.96 in SSW 4.0 mph 12.0 mph 88 % 0.00 in 160 W/m2
14:20 43.9 °F 40.9 °F 28.96 in SSE 4.0 mph 12.0 mph 89 % 0.00 in 109 W/m2
14:30 43.5 °F 40.5 °F 28.95 in SE 5.0 mph 12.0 mph 89 % 0.00 in 58 W/m2
14:35 43.3 °F 40.6 °F 28.95 in South 5.0 mph 12.0 mph 90 % 0.00 in 44 W/m2
14:45 43.4 °F 40.9 °F 28.94 in SSW 3.0 mph 12.0 mph 91 % 0.00 in 202 W/m2
14:50 43.2 °F 40.8 °F 28.94 in South 3.0 mph 12.0 mph 91 % 0.00 in 81 W/m2
14:55 43.0 °F 40.6 °F 28.94 in SSW 4.0 mph 12.0 mph 91 % 0.00 in 56 W/m2
15:00 42.9 °F 40.5 °F 28.94 in SSW 3.0 mph 3.0 mph 91 % 0.00 in 53 W/m2
15:05 42.7 °F 40.3 °F 28.94 in SSW 1.0 mph 12.0 mph 91 % 0.00 in 74 W/m2
15:15 42.7 °F 40.5 °F 28.94 in SSW 1.0 mph 12.0 mph 92 % 0.00 in 56 W/m2
15:20 42.8 °F 40.6 °F 28.94 in SSW 1.0 mph 12.0 mph 92 % 0.00 in 49 W/m2
15:25 42.8 °F 40.6 °F 28.93 in SSW 2.0 mph 12.0 mph 92 % 0.00 in 42 W/m2
15:30 42.8 °F 40.6 °F 28.93 in SW 3.0 mph 12.0 mph 92 % 0.00 in 49 W/m2
15:35 42.7 °F 40.5 °F 28.93 in SW 4.0 mph 12.0 mph 92 % 0.00 in 33 W/m2
15:40 42.5 °F 40.1 °F 28.93 in SW 6.0 mph 12.0 mph 91 % 0.00 in 12 W/m2
15:50 41.4 °F 38.4 °F 28.94 in West 11.0 mph 11.0 mph 89 % 0.00 in 23 W/m2
15:55 41.0 °F 38.3 °F 28.93 in West 10.0 mph 12.0 mph 90 % 0.00 in 32 W/m2
16:05 40.4 °F 38.0 °F 28.93 in West 8.0 mph 12.0 mph 91 % 0.00 in 33 W/m2
16:10 40.2 °F 38.1 °F 28.93 in WNW 8.0 mph 8.0 mph 92 % 0.00 in 46 W/m2
16:15 40.1 °F 38.0 °F 28.93 in WSW 6.0 mph 12.0 mph 92 % 0.00 in 56 W/m2
16:25 40.0 °F 37.9 °F 28.93 in WNW 6.0 mph 12.0 mph 92 % 0.00 in 56 W/m2
16:30 39.9 °F 37.8 °F 28.93 in WNW 7.0 mph 12.0 mph 92 % 0.00 in 53 W/m2
16:35 39.9 °F 37.8 °F 28.93 in WNW 6.0 mph 12.0 mph 92 % 0.00 in 51 W/m2
16:40 39.9 °F 37.8 °F 28.93 in WNW 4.0 mph 4.0 mph 92 % 0.00 in 47 W/m2
16:45 39.9 °F 38.0 °F 28.93 in WNW 2.0 mph 12.0 mph 93 % 0.00 in 32 W/m2
16:55 40.1 °F 38.2 °F 28.94 in West 3.0 mph 6.0 mph 93 % 0.00 in 0 W/m2
17:00 39.7 °F 37.6 °F 28.94 in West 7.0 mph 20.0 mph 92 % 0.00 in 5 W/m2
17:05 39.0 °F 36.6 °F 28.94 in WNW 12.0 mph 20.0 mph 91 % 0.00 in 5 W/m2
17:10 38.6 °F 36.5 °F 28.94 in West 12.0 mph 12.0 mph 92 % 0.00 in 0 W/m2
17:20 38.3 °F 36.5 °F 28.94 in West 9.0 mph 9.0 mph 93 % 0.04 in 7 W/m2
17:25 37.9 °F 36.1 °F 28.94 in NW 9.0 mph 12.0 mph 93 % 0.04 in 46 W/m2
17:35 37.4 °F 35.6 °F 28.94 in WNW 8.0 mph 12.0 mph 93 % 0.06 in 23 W/m2
17:40 37.3 °F 35.5 °F 28.94 in West 7.0 mph 12.0 mph 93 % 0.04 in 5 W/m2
17:45 37.3 °F 35.7 °F 28.94 in WNW 8.0 mph 12.0 mph 94 % 0.00 in 0 W/m2
17:50 37.3 °F 35.7 °F 28.94 in West 6.0 mph 6.0 mph 94 % 0.00 in 0 W/m2
17:55 37.3 °F 35.7 °F 28.94 in West 4.0 mph 12.0 mph 94 % 0.00 in 0 W/m2
18:05 37.3 °F 35.7 °F 28.94 in West 3.0 mph 4.0 mph 94 % 0.00 in 0 W/m2
18:10 37.3 °F 35.7 °F 28.94 in West 2.0 mph 12.0 mph 94 % 0.00 in 0 W/m2
18:15 37.2 °F 35.6 °F 28.94 in West 2.0 mph 12.0 mph 94 % 0.00 in 0 W/m2
18:20 37.2 °F 35.6 °F 28.94 in West 2.0 mph 2.0 mph 94 % 0.00 in 0 W/m2
18:25 37.1 °F 35.5 °F 28.94 in West 1.0 mph 8.0 mph 94 % 0.00 in 0 W/m2
18:30 37.0 °F 35.4 °F 28.94 in West 3.0 mph 12.0 mph 94 % 0.00 in 0 W/m2
18:35 36.9 °F 35.3 °F 28.94 in WSW 6.0 mph 13.0 mph 94 % 0.00 in 0 W/m2
18:40 36.9 °F 35.1 °F 28.95 in West 9.0 mph 12.0 mph 93 % 0.00 in 0 W/m2
18:45 36.9 °F 35.1 °F 28.94 in West 9.0 mph 12.0 mph 93 % 0.00 in 0 W/m2
18:50 37.0 °F 35.2 °F 28.94 in West 8.0 mph 12.0 mph 93 % 0.00 in 0 W/m2
18:55 37.0 °F 34.9 °F 28.94 in WSW 8.0 mph 12.0 mph 92 % 0.00 in 0 W/m2
19:05 37.0 °F 34.9 °F 28.94 in WSW 9.0 mph 12.0 mph 92 % 0.00 in 0 W/m2
19:10 37.0 °F 34.9 °F 28.94 in WSW 9.0 mph 9.0 mph 92 % 0.00 in 0 W/m2
19:15 36.9 °F 34.8 °F 28.94 in West 8.0 mph 11.0 mph 92 % 0.00 in 0 W/m2
19:20 36.9 °F 34.5 °F 28.94 in West 9.0 mph 9.0 mph 91 % 0.00 in 0 W/m2
19:30 36.8 °F 34.4 °F 28.94 in West 8.0 mph 8.0 mph 91 % 0.00 in 0 W/m2
19:35 36.8 °F 34.4 °F 28.95 in West 7.0 mph 12.0 mph 91 % 0.00 in 0 W/m2
19:45 36.7 °F 34.3 °F 28.95 in WSW 6.0 mph 12.0 mph 91 % 0.00 in 0 W/m2
19:50 36.6 °F 34.2 °F 28.95 in West 6.0 mph 12.0 mph 91 % 0.00 in 0 W/m2
19:55 36.7 °F 34.3 °F 28.95 in WSW 7.0 mph 12.0 mph 91 % 0.00 in 0 W/m2
20:00 36.8 °F 34.4 °F 28.95 in WSW 8.0 mph 8.0 mph 91 % 0.00 in 0 W/m2
20:05 36.9 °F 34.5 °F 28.95 in WSW 8.0 mph 12.0 mph 91 % 0.00 in 0 W/m2
20:15 37.0 °F 34.6 °F 28.96 in West 8.0 mph 12.0 mph 91 % 0.00 in 0 W/m2
20:20 37.0 °F 34.6 °F 28.96 in West 9.0 mph 12.0 mph 91 % 0.00 in 0 W/m2
20:25 36.9 °F 34.5 °F 28.96 in West 8.0 mph 12.0 mph 91 % 0.00 in 0 W/m2
20:30 37.0 °F 34.9 °F 28.96 in WSW 7.0 mph 7.0 mph 92 % 0.00 in 0 W/m2
20:35 37.0 °F 34.9 °F 28.96 in West 8.0 mph 9.0 mph 92 % 0.00 in 0 W/m2
20:40 37.0 °F 34.9 °F 28.96 in West 11.0 mph 12.0 mph 92 % 0.00 in 0 W/m2
20:50 36.8 °F 34.4 °F 28.96 in West 9.0 mph 9.0 mph 91 % 0.00 in 0 W/m2
20:55 36.6 °F 34.5 °F 28.96 in WSW 7.0 mph 12.0 mph 92 % 0.00 in 0 W/m2
21:00 36.5 °F 34.4 °F 28.96 in West 6.0 mph 12.0 mph 92 % 0.00 in 0 W/m2
21:05 36.3 °F 34.2 °F 28.96 in West 5.0 mph 12.0 mph 92 % 0.00 in 0 W/m2
21:10 36.1 °F 34.0 °F 28.96 in West 5.0 mph 12.0 mph 92 % 0.00 in 0 W/m2
21:20 35.9 °F 33.8 °F 28.96 in WNW 6.0 mph 12.0 mph 92 % 0.00 in 0 W/m2
21:25 35.8 °F 33.7 °F 28.96 in West 7.0 mph 12.0 mph 92 % 0.00 in 0 W/m2
21:35 35.7 °F 33.6 °F 28.97 in WNW 6.0 mph 12.0 mph 92 % 0.00 in 0 W/m2
21:40 35.6 °F 33.5 °F 28.97 in WNW 6.0 mph 12.0 mph 92 % 0.00 in 0 W/m2
21:45 35.5 °F 33.4 °F 28.96 in West 6.0 mph 12.0 mph 92 % 0.00 in 0 W/m2
21:55 35.3 °F 33.2 °F 28.96 in WNW 4.0 mph 12.0 mph 92 % 0.00 in 0 W/m2
22:00 35.2 °F 33.1 °F 28.96 in West 3.0 mph 12.0 mph 92 % 0.00 in 0 W/m2
22:05 35.1 °F 33.3 °F 28.96 in WNW 4.0 mph 12.0 mph 93 % 0.00 in 0 W/m2
22:10 35.0 °F 33.2 °F 28.96 in West 5.0 mph 12.0 mph 93 % 0.00 in 0 W/m2
22:15 34.9 °F 33.1 °F 28.96 in WNW 5.0 mph 12.0 mph 93 % 0.00 in 0 W/m2
22:20 34.9 °F 33.1 °F 28.96 in WNW 5.0 mph 5.0 mph 93 % 0.00 in 0 W/m2
22:30 34.9 °F 33.1 °F 28.97 in West 4.0 mph 4.0 mph 93 % 0.00 in 0 W/m2
22:35 34.7 °F 32.9 °F 28.97 in West 3.0 mph 6.0 mph 93 % 0.00 in 0 W/m2
22:40 34.6 °F 32.8 °F 28.96 in West 4.0 mph 12.0 mph 93 % 0.00 in 0 W/m2
22:45 34.6 °F 32.8 °F 28.96 in West 4.0 mph 12.0 mph 93 % 0.00 in 0 W/m2
22:50 34.5 °F 32.7 °F 28.96 in West 3.0 mph 3.0 mph 93 % 0.00 in 0 W/m2
23:00 34.2 °F 32.1 °F 28.96 in West 1.0 mph 12.0 mph 92 % 0.00 in 0 W/m2
23:05 34.0 °F 32.2 °F 28.96 in West 1.0 mph 12.0 mph 93 % 0.00 in 0 W/m2
23:10 33.9 °F 32.1 °F 28.96 in West 2.0 mph 2.0 mph 93 % 0.00 in 0 W/m2
23:15 33.8 °F 32.0 °F 28.96 in West 2.0 mph 12.0 mph 93 % 0.00 in 0 W/m2
23:20 33.8 °F 32.0 °F 28.96 in West 1.0 mph 12.0 mph 93 % 0.00 in 0 W/m2
23:25 33.8 °F 32.0 °F 28.96 in West 2.0 mph 12.0 mph 93 % 0.00 in 0 W/m2
23:35 33.6 °F 31.8 °F 28.97 in Calm   12.0 mph 93 % 0.00 in 0 W/m2
23:40 33.5 °F 31.7 °F 28.97 in West 1.0 mph 12.0 mph 93 % 0.00 in 0 W/m2
23:50 33.4 °F 31.9 °F 28.97 in West 2.0 mph 2.0 mph 94 % 0.00 in 0 W/m2
23:55 33.5 °F 32.0 °F 28.97 in West 2.0 mph 12.0 mph 94 % 0.00 in 0 W/m2
Delerius-Weather
Compliments of Weather Underground - 2 mb

Data updates at regular intervals.